OBJECT C, 44881

Orbit data source: Space-Track

You're viewing an Uncataloged Satellite

Recently launched and/or uncataloged satellites may have evolving metadata. Metadata may include but not limited to: Owner, Maufacturer, Bus, Motor, and Mission.

OBJECT C, 44881 is a satellite in SSO that was launched on Fri, 20 Dec 2019 UTC via a CHANG ZHENG 4B launch vehicle from the Taiyaun Space Center, China (TSC). Unknown objects in Earth's orbit typically refer to objects detected orbiting the Earth but have not yet been identified or cataloged. These objects could be anything from previously untracked satellites, spent rocket stages, debris from satellite collisions, or even natural meteoroids temporarily captured by Earth's gravity.

Loading next visibility...
Identifier
44881, 2019-093C
Orbit
SSO
Country
Flag of TBDTBD
Related business
Flag of CNSun Yat-sen University (CN)
Manufacturer
DFH Shenzhen
Mission
Operational Commercial Sci/Com
Bus & Motor
TIANQIN, Unknown motor
Mass
35 kg wet, 35 kg dry
Launch date (UTC)
2019-12-20 (7 years ago)
Launch vehicle
CHANG ZHENG 4B
Launch site
Taiyaun Space Center, China (TSC)
Object type
Unknown
Shape & HBR
Box, 0.2 m
Radar Cross Section
0.105 m², Medium (>0.1 m² and < 1m²)

Expand to show TLE details & history
Last TLE update: 6 hours ago

TLE from 6 hours ago
0 OBJECT C
1 44881U 19093C   26208.63340103  .00001458  00000-0  17037-3 0  9994
2 44881  97.7520 279.8758 0012475 319.5393  40.4894 14.86579257357429
Epoch: 2026-07-27T15:12Z
TLE epoch observation values (Epoch: 2026-07-27T15:12:05.848Z)
Latitude
-0.00002°
Longitude
106.53726°
Altitude
605.043 km
Speed
7.56 km/s
True Right ascension
18h 39m 30s
True Declination
0° 00' 00"
Sunlit
Object was in full shadow at epoch
Visualization orbit readout
Latitude
Unknown
Longitude
Unknown
Altitude
Unknown
Speed
Unknown
Apparent Right ascension
Unknown
Apparent Declination
Unknown
Sunlit
N/A
Visualization observer readout
Local Sidereal Time
10:32:09
Azimuth
Unknown
Elevation
Unknown
Doppler factor
Unknown
Orbital elements
Apogee altitude
614.371 km
Perigee altitude
596.946 km
Semi-major axis
6,983.796 km
Eccentricity
0.00125
Inclination
97.752°
RAAN
279.8758°
Arg. of periapsis
319.5393°
True anomaly
40.58233°
Mean anomaly
40.4894°
Eccentric anomaly
40.53585°
Mean motion
3.71883 °/min
Orbital period
96.8 mins
BSTAR
0.00017037
Loading maneuver chart data...
Computing Atmospheric mass density...
Loading historical data...
Loading historical data...
Loading historical data...
Loading historical data...
Loading historical data...
Loading historical data...
Loading historical data...

Documentation

Showing up to 5 results
|